Time,TemperatureF,DewpointF,PressureIn,WindDirection,WindDirectionDegrees,WindSpeedMPH,WindSpeedGustMPH,Humidity,HourlyPrecipIn,Conditions,Clouds,dailyrainin,SoftwareType,DateUTC
2013-09-05 00:01:00,79.2,75.7,30.02,NE,44,0.0,0.0,89,0.00,RA,OVC,0.00,WeatherDisplay:10.37,2013-09-05 04:01:00,
2013-09-05 00:02:00,79.2,75.7,30.02,NE,44,0.0,0.0,89,0.00,RA,OVC,0.00,WeatherDisplay:10.37,2013-09-05 04:02:00,
2013-09-05 00:07:00,79.2,75.7,30.02,NE,44,0.0,0.0,89,0.00,RA,OVC,0.00,WeatherDisplay:10.37,2013-09-05 04:07:00,
2013-09-05 00:12:00,79.2,75.7,30.02,NE,44,0.0,0.0,89,0.00,,OVC,0.00,WeatherDisplay:10.37,2013-09-05 04:12:00,
2013-09-05 00:17:00,79.2,75.7,30.01,NE,44,0.0,0.0,89,0.00,,OVC,0.00,WeatherDisplay:10.37,2013-09-05 04:17:00,
2013-09-05 00:22:00,79.0,75.5,30.01,NE,44,0.0,0.0,89,0.00,,OVC,0.00,WeatherDisplay:10.37,2013-09-05 04:22:00,
2013-09-05 00:27:00,79.0,75.5,30.01,NE,44,0.0,0.0,89,0.00,,OVC,0.00,WeatherDisplay:10.37,2013-09-05 04:27:00,
2013-09-05 00:32:00,79.0,75.5,30.01,NE,43,0.0,0.0,89,0.00,,OVC,0.00,WeatherDisplay:10.37,2013-09-05 04:32:00,
2013-09-05 00:37:00,78.8,75.3,30.01,NE,44,0.0,0.0,89,0.00,,OVC,0.00,WeatherDisplay:10.37,2013-09-05 04:37:00,
2013-09-05 00:42:00,78.8,75.3,30.01,NE,44,0.0,0.0,89,0.00,,OVC,0.00,WeatherDisplay:10.37,2013-09-05 04:42:00,
2013-09-05 00:47:00,78.8,75.6,30.01,NE,44,0.0,0.0,90,0.00,,OVC,0.00,WeatherDisplay:10.37,2013-09-05 04:47:00,
2013-09-05 00:52:00,78.8,75.3,30.01,NE,44,0.0,0.0,89,0.00,,OVC,0.00,WeatherDisplay:10.37,2013-09-05 04:52:00,
2013-09-05 00:57:00,78.8,75.3,30.01,NE,44,0.0,0.0,89,0.00,,OVC,0.00,WeatherDisplay:10.37,2013-09-05 04:57:00,
2013-09-05 01:02:00,78.8,75.3,30.01,NE,44,0.0,0.0,89,0.00,,OVC,0.00,WeatherDisplay:10.37,2013-09-05 05:02:00,
2013-09-05 01:07:00,78.6,75.1,30.01,NE,44,0.0,0.0,89,0.00,,OVC,0.00,WeatherDisplay:10.37,2013-09-05 05:07:00,
2013-09-05 01:12:00,78.8,75.6,30.01,NE,44,0.0,0.0,90,0.00,,OVC,0.00,WeatherDisplay:10.37,2013-09-05 05:12:00,
2013-09-05 01:17:00,78.8,75.6,30.00,NE,44,0.0,0.0,90,0.00,,OVC,0.00,WeatherDisplay:10.37,2013-09-05 05:17:00,
2013-09-05 01:22:00,78.8,75.3,30.00,NE,44,0.0,0.0,89,0.00,,OVC,0.00,WeatherDisplay:10.37,2013-09-05 05:22:00,
2013-09-05 01:27:00,78.6,75.1,30.00,NE,44,0.0,0.0,89,0.00,,OVC,0.00,WeatherDisplay:10.37,2013-09-05 05:27:00,
2013-09-05 01:33:00,78.6,75.4,30.00,NE,44,0.0,0.0,90,0.00,,OVC,0.00,WeatherDisplay:10.37,2013-09-05 05:33:00,
2013-09-05 01:38:00,78.6,75.4,30.00,NE,44,0.0,0.0,90,0.00,,OVC,0.00,WeatherDisplay:10.37,2013-09-05 05:38:00,
2013-09-05 01:43:00,78.6,75.4,30.00,NE,44,0.0,0.0,90,0.00,,OVC,0.00,WeatherDisplay:10.37,2013-09-05 05:43:00,
2013-09-05 01:48:00,78.6,75.4,30.00,NE,44,0.0,0.0,90,0.00,,OVC,0.00,WeatherDisplay:10.37,2013-09-05 05:48:00,
2013-09-05 01:53:00,78.6,75.4,30.00,NE,44,0.0,0.0,90,0.00,,OVC,0.00,WeatherDisplay:10.37,2013-09-05 05:53:00,
2013-09-05 01:58:00,78.5,75.3,30.00,NE,44,0.0,0.0,90,0.00,,OVC,0.00,WeatherDisplay:10.37,2013-09-05 05:58:00,
2013-09-05 02:03:00,78.5,75.3,29.99,NE,44,0.0,0.0,90,0.00,,OVC,0.00,WeatherDisplay:10.37,2013-09-05 06:03:00,
2013-09-05 02:08:00,78.5,75.3,29.99,NE,43,0.0,0.0,90,0.00,,OVC,0.00,WeatherDisplay:10.37,2013-09-05 06:08:00,
2013-09-05 02:13:00,78.5,75.3,29.99,NE,43,0.0,0.0,90,0.00,,OVC,0.00,WeatherDisplay:10.37,2013-09-05 06:13:00,
2013-09-05 02:18:00,78.5,75.3,29.99,NE,43,0.0,0.0,90,0.00,,OVC,0.00,WeatherDisplay:10.37,2013-09-05 06:18:00,
2013-09-05 02:23:00,78.6,75.4,29.99,NE,43,0.0,0.0,90,0.00,,OVC,0.00,WeatherDisplay:10.37,2013-09-05 06:23:00,
2013-09-05 02:28:00,78.6,75.1,29.99,NE,43,0.0,0.0,89,0.00,,OVC,0.00,WeatherDisplay:10.37,2013-09-05 06:28:00,
2013-09-05 02:33:00,78.6,75.1,29.99,NE,43,0.0,0.0,89,0.00,,OVC,0.00,WeatherDisplay:10.37,2013-09-05 06:33:00,
2013-09-05 02:38:00,78.5,75.0,29.99,NE,43,0.0,0.0,89,0.00,,OVC,0.00,WeatherDisplay:10.37,2013-09-05 06:38:00,
2013-09-05 02:43:00,78.5,75.3,29.99,NE,43,0.0,0.0,90,0.00,,OVC,0.00,WeatherDisplay:10.37,2013-09-05 06:43:00,
2013-09-05 02:48:00,78.5,75.3,29.98,East,80,0.0,0.0,90,0.00,,OVC,0.00,WeatherDisplay:10.37,2013-09-05 06:48:00,
2013-09-05 02:53:00,78.6,75.4,29.98,SE,145,0.0,0.0,90,0.00,,OVC,0.00,WeatherDisplay:10.37,2013-09-05 06:53:00,
2013-09-05 02:58:00,78.5,75.3,29.98,SE,138,0.0,0.0,90,0.00,,OVC,0.00,WeatherDisplay:10.37,2013-09-05 06:58:00,
2013-09-05 03:03:00,78.6,75.1,29.98,SE,142,0.0,0.0,89,0.00,,OVC,0.00,WeatherDisplay:10.37,2013-09-05 07:03:00,
2013-09-05 03:08:00,78.8,74.6,29.98,SE,142,0.0,0.0,87,0.00,,OVC,0.00,WeatherDisplay:10.37,2013-09-05 07:08:00,
2013-09-05 03:13:00,78.8,74.6,29.98,SE,142,0.0,0.0,87,0.00,,OVC,0.00,WeatherDisplay:10.37,2013-09-05 07:13:00,
2013-09-05 03:18:00,78.8,74.6,29.97,SE,146,0.0,0.0,87,0.00,,OVC,0.00,WeatherDisplay:10.37,2013-09-05 07:18:00,
2013-09-05 03:23:00,78.8,74.6,29.97,SE,146,0.0,0.0,87,0.00,,OVC,0.00,WeatherDisplay:10.37,2013-09-05 07:23:00,
2013-09-05 03:28:00,78.8,74.6,29.97,SE,146,0.0,0.0,87,0.00,,OVC,0.00,WeatherDisplay:10.37,2013-09-05 07:28:00,
2013-09-05 03:33:00,78.6,74.7,29.96,SE,146,0.0,0.0,88,0.00,,OVC,0.00,WeatherDisplay:10.37,2013-09-05 07:33:00,
2013-09-05 03:38:00,78.6,74.7,29.96,SE,146,0.0,0.0,88,0.00,,OVC,0.00,WeatherDisplay:10.37,2013-09-05 07:38:00,
2013-09-05 03:43:00,78.6,74.7,29.96,SE,146,0.0,0.0,88,0.00,,OVC,0.00,WeatherDisplay:10.37,2013-09-05 07:43:00,
2013-09-05 03:48:00,78.5,75.0,29.97,SE,146,0.0,0.0,89,0.00,,OVC,0.00,WeatherDisplay:10.37,2013-09-05 07:48:00,
2013-09-05 03:53:00,78.5,75.0,29.97,SE,146,0.0,0.0,89,0.00,,OVC,0.00,WeatherDisplay:10.37,2013-09-05 07:53:00,
2013-09-05 03:58:00,78.5,75.0,29.97,SE,146,0.0,0.0,89,0.00,,OVC,0.00,WeatherDisplay:10.37,2013-09-05 07:58:00,
2013-09-05 04:03:00,78.3,74.8,29.96,SE,146,0.0,0.0,89,0.00,,OVC,0.00,WeatherDisplay:10.37,2013-09-05 08:03:00,
2013-09-05 04:08:00,78.5,75.3,29.96,SE,146,0.0,0.0,90,0.00,,OVC,0.00,WeatherDisplay:10.37,2013-09-05 08:08:00,
2013-09-05 04:13:00,78.6,75.4,29.96,East,94,0.0,0.0,90,0.00,,OVC,0.00,WeatherDisplay:10.37,2013-09-05 08:13:00,
2013-09-05 04:18:00,78.6,75.4,29.96,East,92,0.0,0.0,90,0.00,,OVC,0.00,WeatherDisplay:10.37,2013-09-05 08:18:00,
2013-09-05 04:23:00,78.6,75.8,29.96,East,92,0.0,0.0,91,0.00,,OVC,0.00,WeatherDisplay:10.37,2013-09-05 08:23:00,
2013-09-05 04:28:00,78.8,75.9,29.96,East,92,0.0,0.0,91,0.00,,OVC,0.00,WeatherDisplay:10.37,2013-09-05 08:28:00,
2013-09-05 04:33:00,78.8,75.9,29.96,East,92,0.0,0.0,91,0.00,,OVC,0.00,WeatherDisplay:10.37,2013-09-05 08:33:00,
2013-09-05 04:38:00,78.8,75.9,29.96,East,92,0.0,0.0,91,0.00,,OVC,0.00,WeatherDisplay:10.37,2013-09-05 08:38:00,
2013-09-05 04:43:00,78.8,75.9,29.96,East,92,0.0,0.0,91,0.00,,OVC,0.00,WeatherDisplay:10.37,2013-09-05 08:43:00,
2013-09-05 04:48:00,79.0,76.1,29.96,East,92,0.0,0.0,91,0.00,,OVC,0.00,WeatherDisplay:10.37,2013-09-05 08:48:00,
2013-09-05 04:53:00,79.0,76.1,29.96,East,93,0.0,0.0,91,0.00,,OVC,0.00,WeatherDisplay:10.37,2013-09-05 08:53:00,
2013-09-05 04:58:00,79.2,76.3,29.96,East,92,0.0,0.0,91,0.00,,OVC,0.00,WeatherDisplay:10.37,2013-09-05 08:58:00,
2013-09-05 05:03:00,79.2,76.3,29.96,East,92,0.0,0.0,91,0.00,,OVC,0.00,WeatherDisplay:10.37,2013-09-05 09:03:00,
2013-09-05 05:08:00,79.2,76.3,29.96,East,92,0.0,0.0,91,0.00,,OVC,0.00,WeatherDisplay:10.37,2013-09-05 09:08:00,
2013-09-05 05:13:00,79.4,76.5,29.96,East,92,0.0,0.0,91,0.00,,OVC,0.00,WeatherDisplay:10.37,2013-09-05 09:13:00,
2013-09-05 05:18:00,79.6,76.4,29.96,East,92,0.0,0.0,90,0.00,,OVC,0.00,WeatherDisplay:10.37,2013-09-05 09:18:00,
2013-09-05 05:23:00,79.6,76.4,29.96,East,92,0.0,0.0,90,0.00,,OVC,0.00,WeatherDisplay:10.37,2013-09-05 09:23:00,
2013-09-05 05:28:00,79.6,76.4,29.96,East,92,0.0,0.0,90,0.00,,OVC,0.00,WeatherDisplay:10.37,2013-09-05 09:28:00,
2013-09-05 05:33:00,79.6,76.4,29.97,East,92,0.0,0.0,90,0.00,,OVC,0.00,WeatherDisplay:10.37,2013-09-05 09:33:00,
2013-09-05 05:38:00,79.6,76.4,29.97,East,92,0.0,0.0,90,0.00,,OVC,0.00,WeatherDisplay:10.37,2013-09-05 09:38:00,
2013-09-05 05:43:00,79.4,76.2,29.97,East,92,0.0,0.0,90,0.00,,OVC,0.00,WeatherDisplay:10.37,2013-09-05 09:43:00,
2013-09-05 05:48:00,79.4,76.2,29.97,East,92,0.0,0.0,90,0.00,,OVC,0.00,WeatherDisplay:10.37,2013-09-05 09:48:00,
2013-09-05 05:53:00,79.4,76.2,29.97,East,92,0.0,0.0,90,0.00,,OVC,0.00,WeatherDisplay:10.37,2013-09-05 09:53:00,
2013-09-05 05:58:00,79.2,76.0,29.97,East,92,0.0,0.0,90,0.00,,OVC,0.00,WeatherDisplay:10.37,2013-09-05 09:58:00,
2013-09-05 06:03:00,79.2,76.0,29.98,East,92,0.0,0.0,90,0.00,,OVC,0.00,WeatherDisplay:10.37,2013-09-05 10:03:00,
2013-09-05 06:08:00,79.2,76.0,29.98,East,92,0.0,0.0,90,0.00,,OVC,0.00,WeatherDisplay:10.37,2013-09-05 10:08:00,
2013-09-05 06:13:00,79.2,75.7,29.98,East,92,0.0,0.0,89,0.00,,OVC,0.00,WeatherDisplay:10.37,2013-09-05 10:13:00,
2013-09-05 06:18:00,79.2,75.7,29.98,East,92,0.0,0.0,89,0.00,,OVC,0.00,WeatherDisplay:10.37,2013-09-05 10:18:00,
2013-09-05 06:23:00,79.0,75.5,29.98,East,92,0.0,0.0,89,0.00,,OVC,0.00,WeatherDisplay:10.37,2013-09-05 10:23:00,
2013-09-05 06:28:00,79.0,75.8,29.98,East,92,0.0,0.0,90,0.00,,OVC,0.00,WeatherDisplay:10.37,2013-09-05 10:28:00,
2013-09-05 06:33:00,79.0,75.8,29.98,East,92,0.0,0.0,90,0.00,,OVC,0.00,WeatherDisplay:10.37,2013-09-05 10:33:00,
2013-09-05 06:38:00,78.8,75.6,29.98,East,92,0.0,0.0,90,0.00,,OVC,0.00,WeatherDisplay:10.37,2013-09-05 10:38:00,
2013-09-05 06:43:00,78.8,75.6,29.98,East,92,0.0,0.0,90,0.00,,OVC,0.00,WeatherDisplay:10.37,2013-09-05 10:43:00,
2013-09-05 06:48:00,78.8,75.6,29.98,East,92,0.0,0.0,90,0.00,,OVC,0.00,WeatherDisplay:10.37,2013-09-05 10:48:00,
2013-09-05 06:53:00,78.8,75.6,29.98,East,92,0.0,0.0,90,0.00,,OVC,0.00,WeatherDisplay:10.37,2013-09-05 10:53:00,
2013-09-05 06:58:00,78.6,75.4,29.98,East,92,0.0,0.0,90,0.00,,OVC,0.00,WeatherDisplay:10.37,2013-09-05 10:58:00,
2013-09-05 07:03:00,78.6,75.4,29.99,East,92,0.0,0.0,90,0.00,,OVC,0.00,WeatherDisplay:10.37,2013-09-05 11:03:00,
2013-09-05 07:08:00,78.5,75.7,29.99,East,92,0.0,0.0,91,0.00,,OVC,0.00,WeatherDisplay:10.37,2013-09-05 11:08:00,
2013-09-05 07:13:00,78.5,75.7,29.99,East,92,0.0,0.0,91,0.00,,OVC,0.00,WeatherDisplay:10.37,2013-09-05 11:13:00,
2013-09-05 07:18:00,78.6,75.8,29.99,East,92,0.0,0.0,91,0.00,,OVC,0.00,WeatherDisplay:10.37,2013-09-05 11:18:00,
2013-09-05 07:23:00,78.6,75.8,29.99,East,92,0.0,0.0,91,0.00,,OVC,0.00,WeatherDisplay:10.37,2013-09-05 11:23:00,
2013-09-05 07:28:00,78.6,75.8,29.99,East,92,0.0,0.0,91,0.00,,OVC,0.00,WeatherDisplay:10.37,2013-09-05 11:28:00,
2013-09-05 07:34:00,78.6,75.4,29.99,East,92,0.0,0.0,90,0.00,,OVC,0.00,WeatherDisplay:10.37,2013-09-05 11:34:00,
2013-09-05 07:39:00,78.8,75.6,29.99,East,92,0.0,0.0,90,0.00,,OVC,0.00,WeatherDisplay:10.37,2013-09-05 11:39:00,
2013-09-05 07:44:00,78.8,75.6,29.99,East,92,0.0,0.0,90,0.00,,OVC,0.00,WeatherDisplay:10.37,2013-09-05 11:44:00,
2013-09-05 07:49:00,79.0,75.8,29.99,East,92,0.0,0.0,90,0.00,,OVC,0.00,WeatherDisplay:10.37,2013-09-05 11:49:00,
2013-09-05 07:54:00,79.2,75.7,29.99,East,92,0.0,0.0,89,0.00,,OVC,0.00,WeatherDisplay:10.37,2013-09-05 11:54:00,
2013-09-05 07:59:00,79.6,76.1,29.99,East,92,0.0,0.0,89,0.00,,OVC,0.00,WeatherDisplay:10.37,2013-09-05 11:59:00,
2013-09-05 08:04:00,80.1,76.6,29.99,East,92,0.0,0.0,89,0.00,,OVC,0.00,WeatherDisplay:10.37,2013-09-05 12:04:00,
2013-09-05 08:09:00,80.5,76.6,29.99,East,92,0.0,0.0,88,0.00,,OVC,0.00,WeatherDisplay:10.37,2013-09-05 12:09:00,
2013-09-05 08:14:00,81.1,76.9,29.99,East,88,0.0,0.0,87,0.00,,OVC,0.00,WeatherDisplay:10.37,2013-09-05 12:14:00,
2013-09-05 08:19:00,81.4,76.5,30.00,East,90,0.0,0.0,85,0.00,,OVC,0.00,WeatherDisplay:10.37,2013-09-05 12:19:00,
2013-09-05 08:24:00,81.8,75.8,30.00,NE,36,0.0,0.0,82,0.00,,OVC,0.00,WeatherDisplay:10.37,2013-09-05 12:24:00,
2013-09-05 08:29:00,82.2,75.4,30.00,NE,38,0.0,0.0,80,0.00,,OVC,0.00,WeatherDisplay:10.37,2013-09-05 12:29:00,
2013-09-05 08:34:00,82.6,75.4,30.00,NE,36,0.0,0.0,79,0.00,,OVC,0.00,WeatherDisplay:10.37,2013-09-05 12:34:00,
2013-09-05 08:39:00,83.0,75.4,30.00,ENE,73,0.0,0.0,78,0.00,,OVC,0.00,WeatherDisplay:10.37,2013-09-05 12:39:00,
2013-09-05 08:44:00,83.4,75.4,30.00,ENE,72,0.0,0.0,77,0.00,,OVC,0.00,WeatherDisplay:10.37,2013-09-05 12:44:00,
2013-09-05 08:49:00,83.6,75.6,30.00,ENE,58,0.0,0.0,77,0.00,,OVC,0.00,WeatherDisplay:10.37,2013-09-05 12:49:00,
2013-09-05 08:54:00,84.0,76.0,30.00,East,80,0.0,0.0,77,0.00,,OVC,0.00,WeatherDisplay:10.37,2013-09-05 12:54:00,
2013-09-05 08:59:00,84.1,75.3,30.00,NE,44,0.0,0.0,75,0.00,,OVC,0.00,WeatherDisplay:10.37,2013-09-05 12:59:00,
2013-09-05 09:04:00,84.3,75.1,30.01,ENE,63,0.0,0.0,74,0.00,,OVC,0.00,WeatherDisplay:10.37,2013-09-05 13:04:00,
2013-09-05 09:09:00,84.3,75.1,30.01,ESE,105,0.0,0.0,74,0.00,,OVC,0.00,WeatherDisplay:10.37,2013-09-05 13:09:00,
2013-09-05 09:14:00,84.5,75.7,30.01,East,88,0.0,0.0,75,0.00,,OVC,0.00,WeatherDisplay:10.37,2013-09-05 13:14:00,
2013-09-05 09:19:00,84.5,75.7,30.01,East,84,0.0,0.0,75,0.00,,OVC,0.00,WeatherDisplay:10.37,2013-09-05 13:19:00,
2013-09-05 09:24:00,84.5,76.1,30.01,SE,145,0.0,0.0,76,0.00,,OVC,0.00,WeatherDisplay:10.37,2013-09-05 13:24:00,
2013-09-05 09:29:00,84.7,76.3,30.01,East,88,0.0,0.0,76,0.00,,OVC,0.00,WeatherDisplay:10.37,2013-09-05 13:29:00,
2013-09-05 09:34:00,84.7,76.3,30.01,East,101,0.0,0.0,76,0.00,,OVC,0.00,WeatherDisplay:10.37,2013-09-05 13:34:00,
2013-09-05 09:39:00,84.9,76.5,30.01,NE,53,0.0,0.0,76,0.00,,OVC,0.00,WeatherDisplay:10.37,2013-09-05 13:39:00,
2013-09-05 09:44:00,84.9,76.5,30.01,ESE,113,0.0,0.0,76,0.00,,OVC,0.00,WeatherDisplay:10.37,2013-09-05 13:44:00,
2013-09-05 09:49:00,84.9,75.7,30.02,ESE,114,0.0,0.0,74,0.00,,OVC,0.00,WeatherDisplay:10.37,2013-09-05 13:49:00,
2013-09-05 09:54:00,85.1,75.1,30.02,East,96,0.0,0.0,72,0.00,,OVC,0.00,WeatherDisplay:10.37,2013-09-05 13:54:00,
2013-09-05 09:59:00,85.1,74.6,30.02,North,9,0.0,0.0,71,0.00,,OVC,0.00,WeatherDisplay:10.37,2013-09-05 13:59:00,
2013-09-05 10:04:00,85.1,75.1,30.02,East,86,0.0,0.0,72,0.00,,OVC,0.00,WeatherDisplay:10.37,2013-09-05 14:04:00,
2013-09-05 10:09:00,85.3,75.7,30.02,SE,144,0.0,0.0,73,0.00,,OVC,0.00,WeatherDisplay:10.37,2013-09-05 14:09:00,
2013-09-05 10:14:00,85.7,76.0,30.03,ENE,57,11.5,11.5,73,0.00,,OVC,0.00,WeatherDisplay:10.37,2013-09-05 14:14:00,
2013-09-05 10:19:00,85.9,76.2,30.03,NE,55,0.0,0.0,73,0.00,,OVC,0.00,WeatherDisplay:10.37,2013-09-05 14:19:00,
2013-09-05 10:24:00,85.7,75.2,30.03,SE,145,0.0,0.0,71,0.00,,OVC,0.00,WeatherDisplay:10.37,2013-09-05 14:24:00,
2013-09-05 10:29:00,85.7,75.6,30.03,SE,141,0.0,0.0,72,0.00,,OVC,0.00,WeatherDisplay:10.37,2013-09-05 14:29:00,
2013-09-05 10:34:00,85.7,75.6,30.03,SE,142,0.0,0.0,72,0.00,,OVC,0.00,WeatherDisplay:10.37,2013-09-05 14:34:00,
2013-09-05 10:39:00,85.9,75.8,30.03,ESE,119,0.0,0.0,72,0.00,,OVC,0.00,WeatherDisplay:10.37,2013-09-05 14:39:00,
2013-09-05 10:44:00,86.3,75.8,30.04,East,98,0.0,0.0,71,0.00,,OVC,0.00,WeatherDisplay:10.37,2013-09-05 14:44:00,
2013-09-05 10:49:00,86.5,76.0,30.04,SSE,150,0.0,0.0,71,0.00,,OVC,0.00,WeatherDisplay:10.37,2013-09-05 14:49:00,
2013-09-05 10:54:00,86.7,76.6,30.04,SE,145,0.0,0.0,72,0.00,,OVC,0.00,WeatherDisplay:10.37,2013-09-05 14:54:00,
2013-09-05 10:59:00,87.2,76.2,30.04,ENE,57,0.0,0.0,70,0.00,,OVC,0.00,WeatherDisplay:10.37,2013-09-05 14:59:00,
2013-09-05 11:04:00,87.6,76.6,30.04,ENE,65,0.0,0.0,70,0.00,CLR,OVC,0.00,WeatherDisplay:10.37,2013-09-05 15:04:00,
2013-09-05 11:09:00,88.2,76.7,30.04,ENE,76,6.9,6.9,69,0.00,CLR,OVC,0.00,WeatherDisplay:10.37,2013-09-05 15:09:00,
2013-09-05 11:14:00,88.6,76.2,30.04,NNE,30,5.8,5.8,67,0.00,CLR,OVC,0.00,WeatherDisplay:10.37,2013-09-05 15:14:00,
2013-09-05 11:19:00,88.2,75.4,30.04,NE,53,2.3,0.0,66,0.00,CLR,OVC,0.00,WeatherDisplay:10.37,2013-09-05 15:19:00,
2013-09-05 11:24:00,88.2,76.3,30.04,NE,36,1.0,1.0,68,0.00,CLR,OVC,0.00,WeatherDisplay:10.37,2013-09-05 15:24:00,
2013-09-05 11:29:00,87.8,75.9,30.04,ENE,63,9.2,9.2,68,0.00,CLR,OVC,0.00,WeatherDisplay:10.37,2013-09-05 15:29:00,
2013-09-05 11:34:00,87.6,75.7,30.04,NE,56,12.7,12.7,68,0.00,CLR,OVC,0.00,WeatherDisplay:10.37,2013-09-05 15:34:00,
2013-09-05 11:39:00,87.4,75.1,30.04,ENE,61,13.8,13.8,67,0.00,CLR,OVC,0.00,WeatherDisplay:10.37,2013-09-05 15:39:00,
2013-09-05 11:44:00,87.0,74.7,30.04,NNE,32,8.1,8.1,67,0.00,CLR,OVC,0.00,WeatherDisplay:10.37,2013-09-05 15:44:00,
2013-09-05 11:49:00,87.0,75.2,30.04,NE,41,0.0,2.8,68,0.00,CLR,OVC,0.00,WeatherDisplay:10.37,2013-09-05 15:49:00,
2013-09-05 11:54:00,87.6,74.8,30.04,ENE,61,0.0,0.0,66,0.00,CLR,OVC,0.00,WeatherDisplay:10.37,2013-09-05 15:54:00,
2013-09-05 11:59:00,88.4,75.6,30.03,ENE,62,0.0,0.0,66,0.00,CLR,OVC,0.00,WeatherDisplay:10.37,2013-09-05 15:59:00,
2013-09-05 12:04:00,88.6,75.8,30.03,ENE,71,0.0,0.0,66,0.00,,OVC,0.00,WeatherDisplay:10.37,2013-09-05 16:04:00,
2013-09-05 12:09:00,88.6,73.9,30.03,ENE,71,0.0,0.0,62,0.00,,OVC,0.00,WeatherDisplay:10.37,2013-09-05 16:09:00,
2013-09-05 12:14:00,88.6,73.9,30.03,NE,44,11.5,11.5,62,0.00,,OVC,0.00,WeatherDisplay:10.37,2013-09-05 16:14:00,
2013-09-05 12:19:00,88.6,75.8,30.03,East,99,8.1,0.0,66,0.00,,OVC,0.00,WeatherDisplay:10.37,2013-09-05 16:19:00,
2013-09-05 12:24:00,88.2,75.4,30.03,NE,53,7.0,7.0,66,0.00,,OVC,0.00,WeatherDisplay:10.37,2013-09-05 16:24:00,
2013-09-05 12:29:00,88.8,75.0,30.03,East,93,11.5,11.5,64,0.00,,OVC,0.00,WeatherDisplay:10.37,2013-09-05 16:29:00,
2013-09-05 12:34:00,89.3,73.6,30.03,ENE,63,17.3,17.3,60,0.00,,OVC,0.00,WeatherDisplay:10.37,2013-09-05 16:34:00,
2013-09-05 12:39:00,89.0,73.3,30.03,East,88,16.1,16.1,60,0.00,,OVC,0.00,WeatherDisplay:10.37,2013-09-05 16:39:00,
2013-09-05 12:44:00,89.0,72.8,30.02,SE,130,1.2,1.2,59,0.00,,OVC,0.00,WeatherDisplay:10.37,2013-09-05 16:44:00,
2013-09-05 12:49:00,89.0,73.8,30.02,ESE,108,9.2,9.2,61,0.00,,OVC,0.00,WeatherDisplay:10.37,2013-09-05 16:49:00,
2013-09-05 12:54:00,89.0,75.2,30.02,SE,128,16.1,0.0,64,0.00,,OVC,0.00,WeatherDisplay:10.37,2013-09-05 16:54:00,
2013-09-05 12:59:00,88.8,73.6,30.02,NE,43,17.0,17.0,61,0.00,,OVC,0.00,WeatherDisplay:10.37,2013-09-05 16:59:00,
2013-09-05 13:04:00,88.4,73.2,30.02,ENE,68,6.9,6.9,61,0.00,,OVC,0.00,WeatherDisplay:10.37,2013-09-05 17:04:00,
2013-09-05 13:09:00,88.4,73.7,30.02,ENE,72,6.9,0.0,62,0.00,,OVC,0.00,WeatherDisplay:10.37,2013-09-05 17:09:00,
2013-09-05 13:14:00,88.2,74.5,30.02,SE,146,5.8,0.0,64,0.00,,OVC,0.00,WeatherDisplay:10.37,2013-09-05 17:14:00,
2013-09-05 13:20:00,88.2,74.9,30.02,ESE,118,3.0,3.0,65,0.00,,OVC,0.00,WeatherDisplay:10.37,2013-09-05 17:20:00,
2013-09-05 13:25:00,88.0,74.8,30.02,ENE,58,4.0,4.0,65,0.00,,OVC,0.00,WeatherDisplay:10.37,2013-09-05 17:25:00,
2013-09-05 13:30:00,87.8,74.1,30.02,ENE,61,0.0,0.0,64,0.00,,OVC,0.00,WeatherDisplay:10.37,2013-09-05 17:30:00,
2013-09-05 13:35:00,87.8,75.5,30.02,ENE,76,0.0,0.9,67,0.00,,OVC,0.00,WeatherDisplay:10.37,2013-09-05 17:35:00,
2013-09-05 13:40:00,88.0,76.1,30.02,ENE,65,9.0,9.0,68,0.00,,OVC,0.00,WeatherDisplay:10.37,2013-09-05 17:40:00,
2013-09-05 13:45:00,87.0,76.0,30.02,NE,51,17.3,17.3,70,0.00,,OVC,0.00,WeatherDisplay:10.37,2013-09-05 17:45:00,
2013-09-05 13:50:00,86.1,76.0,30.02,NE,51,12.7,12.7,72,0.00,,OVC,0.00,WeatherDisplay:10.37,2013-09-05 17:50:00,
2013-09-05 13:55:00,85.9,75.8,30.02,ENE,62,18.4,18.4,72,0.00,,OVC,0.00,WeatherDisplay:10.37,2013-09-05 17:55:00,
2013-09-05 14:00:00,85.9,76.2,30.01,NE,46,2.3,0.0,73,0.00,,OVC,0.00,WeatherDisplay:10.37,2013-09-05 18:00:00,
2013-09-05 14:05:00,85.9,75.4,30.01,East,88,5.8,5.8,71,0.00,,OVC,0.00,WeatherDisplay:10.37,2013-09-05 18:05:00,
2013-09-05 14:10:00,85.9,75.4,30.01,SE,142,0.0,0.4,71,0.00,,OVC,0.00,WeatherDisplay:10.37,2013-09-05 18:10:00,
2013-09-05 14:15:00,85.9,74.5,30.01,ENE,63,15.0,15.0,69,0.00,,OVC,0.00,WeatherDisplay:10.37,2013-09-05 18:15:00,
2013-09-05 14:20:00,86.1,74.7,30.01,ESE,117,13.8,13.8,69,0.00,,OVC,0.00,WeatherDisplay:10.37,2013-09-05 18:20:00,
2013-09-05 14:25:00,86.1,74.7,30.01,ENE,59,0.0,0.0,69,0.00,,OVC,0.00,WeatherDisplay:10.37,2013-09-05 18:25:00,
2013-09-05 14:30:00,86.1,74.7,30.01,NE,49,0.0,0.0,69,0.00,,OVC,0.00,WeatherDisplay:10.37,2013-09-05 18:30:00,
2013-09-05 14:35:00,86.1,73.4,30.01,SE,142,0.0,0.5,66,0.00,,OVC,0.00,WeatherDisplay:10.37,2013-09-05 18:35:00,
2013-09-05 14:40:00,86.1,73.4,30.01,NE,40,0.0,0.0,66,0.00,,OVC,0.00,WeatherDisplay:10.37,2013-09-05 18:40:00,
2013-09-05 14:45:00,85.9,72.8,30.00,ESE,123,8.1,8.1,65,0.00,,OVC,0.00,WeatherDisplay:10.37,2013-09-05 18:45:00,
2013-09-05 14:50:00,86.1,73.4,30.00,East,97,0.0,0.0,66,0.00,,OVC,0.00,WeatherDisplay:10.37,2013-09-05 18:50:00,
2013-09-05 14:55:00,86.1,73.9,30.00,East,86,0.0,0.0,67,0.00,,OVC,0.00,WeatherDisplay:10.37,2013-09-05 18:55:00,
2013-09-05 15:00:00,86.1,74.3,30.00,SE,132,0.0,0.0,68,0.00,,OVC,0.00,WeatherDisplay:10.37,2013-09-05 19:00:00,
2013-09-05 15:05:00,86.1,73.4,30.00,ENE,76,0.0,0.0,66,0.00,,OVC,0.00,WeatherDisplay:10.37,2013-09-05 19:05:00,
2013-09-05 15:10:00,86.1,73.9,30.00,SE,146,0.0,0.0,67,0.00,,OVC,0.00,WeatherDisplay:10.37,2013-09-05 19:10:00,
2013-09-05 15:15:00,86.1,73.9,29.99,NE,40,0.0,0.0,67,0.00,,OVC,0.00,WeatherDisplay:10.37,2013-09-05 19:15:00,
2013-09-05 15:20:00,86.1,74.7,29.99,SE,128,9.2,9.2,69,0.00,,OVC,0.00,WeatherDisplay:10.37,2013-09-05 19:20:00,
2013-09-05 15:25:00,86.1,74.7,29.99,East,92,0.0,0.0,69,0.00,,OVC,0.00,WeatherDisplay:10.37,2013-09-05 19:25:00,
2013-09-05 15:30:00,86.1,75.2,29.99,SE,134,0.0,0.0,70,0.00,,OVC,0.00,WeatherDisplay:10.37,2013-09-05 19:30:00,
2013-09-05 15:35:00,86.1,75.6,29.99,SE,132,0.0,0.0,71,0.00,,OVC,0.00,WeatherDisplay:10.37,2013-09-05 19:35:00,
2013-09-05 15:40:00,86.1,75.6,29.99,SE,132,0.0,0.0,71,0.00,,OVC,0.00,WeatherDisplay:10.37,2013-09-05 19:40:00,
2013-09-05 15:45:00,86.1,75.2,29.98,ESE,115,0.0,0.0,70,0.00,,OVC,0.00,WeatherDisplay:10.37,2013-09-05 19:45:00,
2013-09-05 15:50:00,86.1,75.6,29.98,ESE,114,0.0,0.0,71,0.00,,OVC,0.00,WeatherDisplay:10.37,2013-09-05 19:50:00,
2013-09-05 15:55:00,86.1,75.6,29.98,NE,51,0.0,0.0,71,0.00,,OVC,0.00,WeatherDisplay:10.37,2013-09-05 19:55:00,
2013-09-05 16:00:00,86.1,75.6,29.98,NE,53,0.0,0.0,71,0.00,,OVC,0.00,WeatherDisplay:10.37,2013-09-05 20:00:00,
2013-09-05 16:05:00,86.1,75.6,29.98,East,98,0.0,0.0,71,0.00,,OVC,0.00,WeatherDisplay:10.37,2013-09-05 20:05:00,
2013-09-05 16:10:00,86.1,75.2,29.98,East,80,0.0,0.0,70,0.00,,OVC,0.00,WeatherDisplay:10.37,2013-09-05 20:10:00,
2013-09-05 16:15:00,86.1,75.2,29.97,NNE,29,0.0,0.0,70,0.00,,OVC,0.00,WeatherDisplay:10.37,2013-09-05 20:15:00,
2013-09-05 16:20:00,86.1,74.7,29.97,ENE,61,0.0,0.0,69,0.00,,OVC,0.00,WeatherDisplay:10.37,2013-09-05 20:20:00,
2013-09-05 16:25:00,85.9,74.5,29.97,SE,125,0.0,0.0,69,0.00,,OVC,0.00,WeatherDisplay:10.37,2013-09-05 20:25:00,
2013-09-05 16:30:00,85.9,75.0,29.97,SSE,154,0.0,0.0,70,0.00,,OVC,0.00,WeatherDisplay:10.37,2013-09-05 20:30:00,
2013-09-05 16:35:00,85.9,74.5,29.97,ESE,113,2.3,2.3,69,0.00,,OVC,0.00,WeatherDisplay:10.37,2013-09-05 20:35:00,
2013-09-05 16:40:00,85.9,73.7,29.97,ESE,120,0.0,0.0,67,0.00,,OVC,0.00,WeatherDisplay:10.37,2013-09-05 20:40:00,
2013-09-05 16:45:00,86.1,74.3,29.97,ESE,111,10.4,10.4,68,0.00,,OVC,0.00,WeatherDisplay:10.37,2013-09-05 20:45:00,
2013-09-05 16:50:00,86.1,74.7,29.97,ENE,67,12.7,12.7,69,0.00,,OVC,0.00,WeatherDisplay:10.37,2013-09-05 20:50:00,
2013-09-05 16:55:00,86.1,75.6,29.97,ENE,59,4.0,4.0,71,0.00,,OVC,0.00,WeatherDisplay:10.37,2013-09-05 20:55:00,
2013-09-05 17:00:00,86.3,75.4,29.97,ENE,61,2.3,2.3,70,0.00,,OVC,0.00,WeatherDisplay:10.37,2013-09-05 21:00:00,
2013-09-05 17:05:00,86.7,75.3,29.97,East,84,12.7,12.7,69,0.00,,OVC,0.00,WeatherDisplay:10.37,2013-09-05 21:05:00,
2013-09-05 17:10:00,87.2,75.8,29.97,East,94,5.8,5.8,69,0.00,,OVC,0.00,WeatherDisplay:10.37,2013-09-05 21:10:00,
2013-09-05 17:15:00,87.6,75.7,29.98,ENE,74,4.6,4.6,68,0.00,,OVC,0.00,WeatherDisplay:10.37,2013-09-05 21:15:00,
2013-09-05 17:20:00,87.8,75.9,29.98,ESE,116,0.0,0.0,68,0.00,,OVC,0.00,WeatherDisplay:10.37,2013-09-05 21:20:00,
2013-09-05 17:25:00,87.6,74.8,29.98,SE,144,0.0,0.0,66,0.00,,OVC,0.00,WeatherDisplay:10.37,2013-09-05 21:25:00,
2013-09-05 17:30:00,87.4,75.1,29.98,NE,34,0.0,0.0,67,0.00,,OVC,0.00,WeatherDisplay:10.37,2013-09-05 21:30:00,
2013-09-05 17:35:00,87.0,75.6,29.98,ESE,113,11.5,11.5,69,0.00,,OVC,0.00,WeatherDisplay:10.37,2013-09-05 21:35:00,
2013-09-05 17:40:00,86.3,75.4,29.98,NE,55,16.1,16.1,70,0.00,,OVC,0.00,WeatherDisplay:10.37,2013-09-05 21:40:00,
2013-09-05 17:45:00,85.9,75.4,29.98,ENE,74,3.5,3.5,71,0.00,,OVC,0.00,WeatherDisplay:10.37,2013-09-05 21:45:00,
2013-09-05 17:50:00,85.9,75.4,29.98,ENE,71,11.0,11.0,71,0.00,,OVC,0.00,WeatherDisplay:10.37,2013-09-05 21:50:00,
2013-09-05 17:55:00,85.9,75.4,29.98,East,88,18.0,18.0,71,0.00,,OVC,0.00,WeatherDisplay:10.37,2013-09-05 21:55:00,
2013-09-05 18:00:00,85.9,75.8,29.97,ENE,74,0.0,0.0,72,0.00,,OVC,0.00,WeatherDisplay:10.37,2013-09-05 22:00:00,
2013-09-05 18:05:00,85.9,75.8,29.97,ENE,61,3.5,0.0,72,0.00,,OVC,0.00,WeatherDisplay:10.37,2013-09-05 22:05:00,
2013-09-05 18:10:00,85.7,75.2,29.97,SE,128,1.2,0.0,71,0.00,,OVC,0.00,WeatherDisplay:10.37,2013-09-05 22:10:00,
2013-09-05 18:15:00,85.5,75.0,29.97,ENE,65,10.0,10.0,71,0.00,,OVC,0.00,WeatherDisplay:10.37,2013-09-05 22:15:00,
2013-09-05 18:20:00,85.3,74.8,29.97,East,80,0.0,0.0,71,0.00,,OVC,0.00,WeatherDisplay:10.37,2013-09-05 22:20:00,
2013-09-05 18:25:00,85.3,74.8,29.97,ENE,77,0.0,0.0,71,0.00,,OVC,0.00,WeatherDisplay:10.37,2013-09-05 22:25:00,
2013-09-05 18:30:00,85.1,74.6,29.97,ESE,105,9.2,9.2,71,0.00,,OVC,0.00,WeatherDisplay:10.37,2013-09-05 22:30:00,
2013-09-05 18:35:00,84.9,74.4,29.97,ENE,64,0.0,0.0,71,0.00,,OVC,0.00,WeatherDisplay:10.37,2013-09-05 22:35:00,
2013-09-05 18:40:00,84.7,73.8,29.97,ESE,105,1.2,0.0,70,0.00,,OVC,0.00,WeatherDisplay:10.37,2013-09-05 22:40:00,
2013-09-05 18:45:00,84.7,74.3,29.96,ENE,66,9.2,9.2,71,0.00,,OVC,0.00,WeatherDisplay:10.37,2013-09-05 22:45:00,
2013-09-05 18:50:00,84.5,74.1,29.96,East,84,3.5,3.5,71,0.00,,OVC,0.00,WeatherDisplay:10.37,2013-09-05 22:50:00,
2013-09-05 18:55:00,84.5,74.5,29.96,ENE,77,0.0,0.0,72,0.00,,OVC,0.00,WeatherDisplay:10.37,2013-09-05 22:55:00,
2013-09-05 19:00:00,84.5,74.5,29.97,ENE,73,0.0,0.0,72,0.00,,OVC,0.00,WeatherDisplay:10.37,2013-09-05 23:00:00,
2013-09-05 19:05:00,84.3,74.3,29.97,NE,50,0.0,0.0,72,0.00,,OVC,0.00,WeatherDisplay:10.37,2013-09-05 23:05:00,
2013-09-05 19:10:00,84.3,74.3,29.97,ENE,57,0.0,0.0,72,0.00,,OVC,0.00,WeatherDisplay:10.37,2013-09-05 23:10:00,
2013-09-05 19:15:00,84.1,74.1,29.97,East,86,0.0,0.0,72,0.00,,OVC,0.00,WeatherDisplay:10.37,2013-09-05 23:15:00,
2013-09-05 19:21:00,84.1,74.5,29.97,ENE,67,0.0,0.0,73,0.00,,OVC,0.00,WeatherDisplay:10.37,2013-09-05 23:21:00,
2013-09-05 19:26:00,84.0,74.0,29.97,ENE,67,0.0,0.0,72,0.00,,OVC,0.00,WeatherDisplay:10.37,2013-09-05 23:26:00,
2013-09-05 19:31:00,84.0,74.0,29.97,ENE,65,0.0,0.0,72,0.00,,OVC,0.00,WeatherDisplay:10.37,2013-09-05 23:31:00,
2013-09-05 19:36:00,83.8,74.2,29.97,NE,56,0.0,0.0,73,0.00,,OVC,0.00,WeatherDisplay:10.37,2013-09-05 23:36:00,
2013-09-05 19:41:00,83.6,74.4,29.97,ENE,57,0.0,0.0,74,0.00,,OVC,0.00,WeatherDisplay:10.37,2013-09-05 23:41:00,
2013-09-05 19:46:00,83.6,74.4,29.97,East,81,0.0,0.0,74,0.00,,OVC,0.00,WeatherDisplay:10.37,2013-09-05 23:46:00,
2013-09-05 19:51:00,83.4,74.6,29.97,ENE,63,0.0,0.0,75,0.00,,OVC,0.00,WeatherDisplay:10.37,2013-09-05 23:51:00,
2013-09-05 19:56:00,83.4,75.0,29.97,ENE,67,6.9,6.9,76,0.00,,OVC,0.00,WeatherDisplay:10.37,2013-09-05 23:56:00,
2013-09-05 20:01:00,83.4,74.6,29.98,ENE,67,0.0,0.0,75,0.00,,OVC,0.00,WeatherDisplay:10.37,2013-09-06 00:01:00,
2013-09-05 20:06:00,83.2,74.4,29.98,ENE,72,7.0,7.0,75,0.00,,OVC,0.00,WeatherDisplay:10.37,2013-09-06 00:06:00,
2013-09-05 20:11:00,83.2,74.8,29.98,ENE,72,14.0,14.0,76,0.00,,OVC,0.00,WeatherDisplay:10.37,2013-09-06 00:11:00,
2013-09-05 20:16:00,83.0,74.3,29.98,NE,49,0.0,0.0,75,0.00,,OVC,0.00,WeatherDisplay:10.37,2013-09-06 00:16:00,
2013-09-05 20:21:00,83.0,74.3,29.98,ENE,67,0.0,2.9,75,0.00,,OVC,0.00,WeatherDisplay:10.37,2013-09-06 00:21:00,
2013-09-05 20:26:00,83.0,74.6,29.98,ENE,70,6.9,6.9,76,0.00,,OVC,0.00,WeatherDisplay:10.37,2013-09-06 00:26:00,
2013-09-05 20:31:00,83.0,74.6,29.98,ENE,68,0.0,0.0,76,0.00,,OVC,0.00,WeatherDisplay:10.37,2013-09-06 00:31:00,
2013-09-05 20:36:00,83.0,74.6,29.98,ENE,72,0.0,0.0,76,0.00,,OVC,0.00,WeatherDisplay:10.37,2013-09-06 00:36:00,
2013-09-05 20:41:00,82.8,74.5,29.98,ENE,72,0.0,0.0,76,0.00,,OVC,0.00,WeatherDisplay:10.37,2013-09-06 00:41:00,
2013-09-05 20:46:00,82.8,74.5,29.98,ENE,61,0.0,0.0,76,0.00,,OVC,0.00,WeatherDisplay:10.37,2013-09-06 00:46:00,
2013-09-05 20:51:00,82.8,74.8,29.98,ENE,61,0.0,0.0,77,0.00,,OVC,0.00,WeatherDisplay:10.37,2013-09-06 00:51:00,
2013-09-05 20:56:00,82.8,74.8,29.98,ENE,61,0.0,0.0,77,0.00,,OVC,0.00,WeatherDisplay:10.37,2013-09-06 00:56:00,
2013-09-05 21:01:00,82.6,75.0,29.99,ENE,61,0.0,0.0,78,0.00,,OVC,0.00,WeatherDisplay:10.37,2013-09-06 01:01:00,
2013-09-05 21:06:00,82.6,75.0,29.99,ENE,61,0.0,0.0,78,0.00,,OVC,0.00,WeatherDisplay:10.37,2013-09-06 01:06:00,
2013-09-05 21:11:00,82.4,74.8,29.99,ENE,61,0.0,0.0,78,0.00,,OVC,0.00,WeatherDisplay:10.37,2013-09-06 01:11:00,
2013-09-05 21:16:00,82.2,75.0,30.00,ENE,61,0.0,0.0,79,0.00,,OVC,0.00,WeatherDisplay:10.37,2013-09-06 01:16:00,
2013-09-05 21:21:00,82.0,74.8,30.00,ENE,61,0.0,0.0,79,0.00,,OVC,0.00,WeatherDisplay:10.37,2013-09-06 01:21:00,
2013-09-05 21:26:00,81.8,75.0,30.00,ENE,61,0.0,0.0,80,0.00,,OVC,0.00,WeatherDisplay:10.37,2013-09-06 01:26:00,
2013-09-05 21:31:00,81.6,74.8,30.01,ENE,61,0.0,0.0,80,0.00,,OVC,0.00,WeatherDisplay:10.37,2013-09-06 01:31:00,
2013-09-05 21:36:00,81.6,75.2,30.01,ENE,61,0.0,0.0,81,0.00,,OVC,0.00,WeatherDisplay:10.37,2013-09-06 01:36:00,
2013-09-05 21:41:00,81.6,75.2,30.01,ENE,61,0.0,0.0,81,0.00,,OVC,0.00,WeatherDisplay:10.37,2013-09-06 01:41:00,
2013-09-05 21:46:00,81.6,75.2,30.01,ENE,61,0.0,0.0,81,0.00,,OVC,0.00,WeatherDisplay:10.37,2013-09-06 01:46:00,
2013-09-05 21:51:00,81.6,75.2,30.01,ENE,61,0.0,0.0,81,0.00,,OVC,0.00,WeatherDisplay:10.37,2013-09-06 01:51:00,
2013-09-05 21:56:00,81.6,74.8,30.01,ENE,61,0.0,0.0,80,0.00,,OVC,0.00,WeatherDisplay:10.37,2013-09-06 01:56:00,
2013-09-05 22:01:00,81.6,74.8,30.01,ENE,61,0.0,0.0,80,0.00,,OVC,0.00,WeatherDisplay:10.37,2013-09-06 02:01:00,
2013-09-05 22:06:00,81.4,75.0,30.01,ENE,61,0.0,0.0,81,0.00,,OVC,0.00,WeatherDisplay:10.37,2013-09-06 02:06:00,
2013-09-05 22:11:00,81.2,74.8,30.01,ENE,61,0.0,0.0,81,0.00,,OVC,0.00,WeatherDisplay:10.37,2013-09-06 02:11:00,
2013-09-05 22:16:00,81.2,74.8,30.01,ENE,61,0.0,0.0,81,0.00,,OVC,0.00,WeatherDisplay:10.37,2013-09-06 02:16:00,
2013-09-05 22:21:00,81.2,74.8,30.01,ENE,61,0.0,0.0,81,0.00,,OVC,0.00,WeatherDisplay:10.37,2013-09-06 02:21:00,
2013-09-05 22:26:00,81.1,74.7,30.01,ENE,61,0.0,0.0,81,0.00,,OVC,0.00,WeatherDisplay:10.37,2013-09-06 02:26:00,
2013-09-05 22:31:00,81.1,75.1,30.01,ENE,61,0.0,0.0,82,0.00,,OVC,0.00,WeatherDisplay:10.37,2013-09-06 02:31:00,
2013-09-05 22:36:00,80.9,74.9,30.01,ENE,61,0.0,0.0,82,0.00,,OVC,0.00,WeatherDisplay:10.37,2013-09-06 02:36:00,
2013-09-05 22:41:00,80.9,74.9,30.01,ENE,61,0.0,0.0,82,0.00,,OVC,0.00,WeatherDisplay:10.37,2013-09-06 02:41:00,
2013-09-05 22:46:00,80.7,74.7,30.01,ENE,61,0.0,0.0,82,0.00,,OVC,0.00,WeatherDisplay:10.37,2013-09-06 02:46:00,
2013-09-05 22:51:00,80.7,75.1,30.01,ENE,61,0.0,0.0,83,0.00,,OVC,0.00,WeatherDisplay:10.37,2013-09-06 02:51:00,
2013-09-05 22:56:00,80.5,74.9,30.01,ENE,61,0.0,0.0,83,0.00,,OVC,0.00,WeatherDisplay:10.37,2013-09-06 02:56:00,
2013-09-05 23:01:00,80.5,74.9,30.01,ENE,61,0.0,0.0,83,0.00,,OVC,0.00,WeatherDisplay:10.37,2013-09-06 03:01:00,
2013-09-05 23:06:00,80.5,74.5,30.01,ENE,61,0.0,0.0,82,0.00,,OVC,0.00,WeatherDisplay:10.37,2013-09-06 03:06:00,
2013-09-05 23:11:00,80.3,74.3,30.01,ENE,61,0.0,0.0,82,0.00,,OVC,0.00,WeatherDisplay:10.37,2013-09-06 03:11:00,
2013-09-05 23:16:00,80.5,74.9,30.01,ENE,61,0.0,0.0,83,0.00,,OVC,0.00,WeatherDisplay:10.37,2013-09-06 03:16:00,
2013-09-05 23:21:00,80.5,74.5,30.01,ENE,61,0.0,0.0,82,0.00,,OVC,0.00,WeatherDisplay:10.37,2013-09-06 03:21:00,
2013-09-05 23:26:00,80.5,74.9,30.01,ENE,61,0.0,0.0,83,0.00,,OVC,0.00,WeatherDisplay:10.37,2013-09-06 03:26:00,
2013-09-05 23:31:00,80.3,74.7,30.01,ENE,61,0.0,0.0,83,0.00,,OVC,0.00,WeatherDisplay:10.37,2013-09-06 03:31:00,
2013-09-05 23:36:00,80.3,74.7,30.01,ENE,61,0.0,0.0,83,0.00,,OVC,0.00,WeatherDisplay:10.37,2013-09-06 03:36:00,
2013-09-05 23:41:00,80.1,74.5,30.01,ENE,61,0.0,0.0,83,0.00,,OVC,0.00,WeatherDisplay:10.37,2013-09-06 03:41:00,
2013-09-05 23:46:00,79.9,74.6,30.00,ENE,61,0.0,0.0,84,0.00,,OVC,0.00,WeatherDisplay:10.37,2013-09-06 03:46:00,
2013-09-05 23:51:00,79.9,74.6,30.00,ENE,61,0.0,0.0,84,0.00,,OVC,0.00,WeatherDisplay:10.37,2013-09-06 03:51:00,
2013-09-05 23:56:00,79.8,74.5,30.00,ENE,61,0.0,0.0,84,0.00,,OVC,0.00,WeatherDisplay:10.37,2013-09-06 03:56:00,